Location: El Carrer d�Abaix
(41.5797°N, 2.1791°E)
Time: 11:01:16
(UTC+00:00)

COSMOS 2455 - Pass Details

Date: 06 June 2020
Orbit: 899 x 911 km, 67.1° (Epoch: 11 July)

Event Time Altitude Azimuth Distance (km) Brightness Sun altitude
Exits shadow 21:23:36 16° 189° (S) 2,151 4.4 -17.3°
Maximum altitude 21:28:15 58° 114° (ESE) 1,046 2.9 -17.7°
Drops below altitude 10° 21:34:09 10° 37° (NE) 2,596 5.5 -18.4°
Sets 21:36:42 0° 34° (NNE) 3,543 6.3 -18.6°
